Time,TemperatureF,DewpointF,PressureIn,WindDirection,WindDirectionDegrees,WindSpeedMPH,WindSpeedGustMPH,Humidity,HourlyPrecipIn,Conditions,Clouds,dailyrainin,SoftwareType,DateUTC
2013-03-26 00:02:00,13.0,10.0,-100.00,West,280,7.0,9.0,87,0.00,,,0.00,,2013-03-26 05:02:00,
2013-03-26 00:12:00,13.0,10.0,-100.00,WNW,285,7.0,9.0,87,0.00,,,0.00,,2013-03-26 05:12:00,
2013-03-26 00:22:00,11.0,9.0,-100.00,WNW,290,7.0,8.0,87,0.00,,,0.00,,2013-03-26 05:22:00,
2013-03-26 00:32:00,13.0,10.0,-100.00,West,280,7.0,9.0,88,0.00,,,0.00,,2013-03-26 05:32:00,
2013-03-26 00:42:00,14.0,10.0,-100.00,West,280,6.0,8.0,88,0.00,,,0.00,,2013-03-26 05:42:00,
2013-03-26 00:52:00,10.0,7.0,-100.00,West,270,6.0,7.0,88,0.00,,,0.00,,2013-03-26 05:52:00,
2013-03-26 01:02:00,10.0,7.0,-100.00,West,270,6.0,7.0,88,0.00,,,0.00,,2013-03-26 06:02:00,
2013-03-26 01:12:00,9.0,7.0,-100.00,West,270,6.0,7.0,88,0.00,,,0.00,,2013-03-26 06:12:00,
2013-03-26 01:22:00,10.0,7.0,-100.00,West,270,7.0,7.0,89,0.00,,,0.00,,2013-03-26 06:22:00,
2013-03-26 01:32:00,9.0,7.0,-100.00,West,275,7.0,8.0,90,0.00,,,0.00,,2013-03-26 06:32:00,
2013-03-26 01:42:00,9.0,7.0,-100.00,West,270,6.0,7.0,90,0.00,,,0.00,,2013-03-26 06:42:00,
2013-03-26 01:52:00,9.0,7.0,-100.00,West,270,6.0,7.0,90,0.00,,,0.00,,2013-03-26 06:52:00,
2013-03-26 02:02:00,9.0,7.0,-100.00,West,265,6.0,6.0,90,0.00,,,0.00,,2013-03-26 07:02:00,
2013-03-26 02:12:00,9.0,7.0,-100.00,West,270,7.0,7.0,90,0.00,,,0.00,,2013-03-26 07:12:00,
2013-03-26 02:22:00,8.0,5.0,-100.00,West,270,6.0,7.0,90,0.00,,,0.00,,2013-03-26 07:22:00,
2013-03-26 02:33:00,8.0,7.0,-100.00,West,270,6.0,7.0,90,0.00,,,0.00,,2013-03-26 07:33:00,
2013-03-26 02:42:00,8.0,7.0,-100.00,West,270,7.0,7.0,90,0.00,,,0.00,,2013-03-26 07:42:00,
2013-03-26 02:52:00,8.0,7.0,-100.00,West,270,7.0,8.0,90,0.00,,,0.00,,2013-03-26 07:52:00,
2013-03-26 03:02:00,8.0,7.0,-100.00,West,275,7.0,8.0,90,0.00,,,0.00,,2013-03-26 08:02:00,
2013-03-26 03:12:00,8.0,5.0,-100.00,West,275,6.0,7.0,90,0.00,,,0.00,,2013-03-26 08:12:00,
2013-03-26 03:22:00,7.0,5.0,-100.00,West,275,6.0,7.0,90,0.00,,,0.00,,2013-03-26 08:22:00,
2013-03-26 03:32:00,7.0,5.0,-100.00,West,270,7.0,7.0,90,0.00,,,0.00,,2013-03-26 08:32:00,
2013-03-26 03:42:00,7.0,5.0,-100.00,West,265,6.0,7.0,90,0.00,,,0.00,,2013-03-26 08:42:00,
2013-03-26 03:52:00,7.0,5.0,-100.00,West,265,6.0,7.0,90,0.00,,,0.00,,2013-03-26 08:52:00,
2013-03-26 04:02:00,7.0,5.0,-100.00,West,265,6.0,9.0,90,0.00,,,0.00,,2013-03-26 09:02:00,
2013-03-26 04:12:00,7.0,5.0,-100.00,West,265,6.0,9.0,90,0.00,,,0.00,,2013-03-26 09:12:00,
2013-03-26 04:22:00,6.0,3.0,-100.00,West,265,6.0,7.0,90,0.00,,,0.00,,2013-03-26 09:22:00,
2013-03-26 04:33:00,6.0,3.0,-100.00,West,270,6.0,6.0,91,0.00,,,0.00,,2013-03-26 09:33:00,
2013-03-26 04:42:00,7.0,5.0,-100.00,West,270,6.0,6.0,91,0.00,,,0.00,,2013-03-26 09:42:00,
2013-03-26 04:52:00,6.0,5.0,-100.00,West,275,6.0,7.0,91,0.00,,,0.00,,2013-03-26 09:52:00,
2013-03-26 05:02:00,5.0,3.0,-100.00,West,270,5.0,7.0,91,0.00,,,0.00,,2013-03-26 10:02:00,
2013-03-26 05:12:00,5.0,3.0,-100.00,West,260,4.0,6.0,91,0.00,,,0.00,,2013-03-26 10:12:00,
2013-03-26 05:22:00,4.0,1.0,-100.00,West,260,4.0,6.0,91,0.00,,,0.00,,2013-03-26 10:22:00,
2013-03-26 05:32:00,4.0,1.0,-100.00,West,260,4.0,5.0,91,0.00,,,0.00,,2013-03-26 10:32:00,
2013-03-26 05:42:00,3.0,1.0,-100.00,WSW,255,1.0,4.0,91,0.00,,,0.00,,2013-03-26 10:42:00,
2013-03-26 05:52:00,3.0,1.0,-100.00,WSW,250,2.0,3.0,91,0.00,,,0.00,,2013-03-26 10:52:00,
2013-03-26 06:03:00,4.0,1.0,-100.00,WSW,240,4.0,4.0,91,0.00,,,0.00,,2013-03-26 11:03:00,
2013-03-26 06:12:00,3.0,1.0,-100.00,WSW,250,4.0,4.0,91,0.00,,,0.00,,2013-03-26 11:12:00,
2013-03-26 06:22:00,3.0,1.0,-100.00,West,260,5.0,6.0,91,0.00,,,0.00,,2013-03-26 11:22:00,
2013-03-26 06:32:00,4.0,1.0,-100.00,West,260,4.0,6.0,91,0.00,,,0.00,,2013-03-26 11:32:00,
2013-03-26 06:42:00,3.0,1.0,-100.00,West,265,4.0,5.0,91,0.00,,,0.00,,2013-03-26 11:42:00,
2013-03-26 06:52:00,3.0,1.0,-100.00,West,265,4.0,4.0,91,0.00,,,0.00,,2013-03-26 11:52:00,
2013-03-26 07:03:00,3.0,1.0,-100.00,West,260,4.0,5.0,91,0.00,,,0.00,,2013-03-26 12:03:00,
2013-03-26 07:12:00,3.0,1.0,-100.00,West,260,4.0,5.0,91,0.00,,,0.00,,2013-03-26 12:12:00,
2013-03-26 07:22:00,3.0,1.0,-100.00,West,265,2.0,4.0,91,0.00,,,0.00,,2013-03-26 12:22:00,
2013-03-26 07:32:00,2.0,0.0,-100.00,West,270,2.0,3.0,91,0.00,,,0.00,,2013-03-26 12:32:00,
2013-03-26 07:42:00,2.0,1.0,-100.00,West,270,2.0,4.0,91,0.00,,,0.00,,2013-03-26 12:42:00,
2013-03-26 07:52:00,2.0,1.0,-100.00,West,270,4.0,4.0,91,0.00,,,0.00,,2013-03-26 12:52:00,
2013-03-26 08:03:00,4.0,1.0,-100.00,West,270,2.0,5.0,91,0.00,,,0.00,,2013-03-26 13:03:00,
2013-03-26 08:12:00,5.0,3.0,-100.00,West,275,2.0,5.0,91,0.00,,,0.00,,2013-03-26 13:12:00,
2013-03-26 08:22:00,6.0,5.0,-100.00,West,280,3.0,4.0,91,0.00,,,0.00,,2013-03-26 13:22:00,
2013-03-26 08:32:00,6.0,3.0,-100.00,WNW,285,4.0,4.0,91,0.00,,,0.00,,2013-03-26 13:32:00,
2013-03-26 08:42:00,6.0,3.0,-100.00,WNW,295,3.0,4.0,90,0.00,,,0.00,,2013-03-26 13:42:00,
2013-03-26 08:52:00,8.0,5.0,-100.00,West,265,2.0,4.0,90,0.00,,,0.00,,2013-03-26 13:52:00,
2013-03-26 09:02:00,8.0,5.0,-100.00,West,280,1.0,4.0,90,0.00,,,0.00,,2013-03-26 14:02:00,
2013-03-26 09:11:00,7.0,5.0,-100.00,West,270,2.0,3.0,89,0.00,,,0.00,,2013-03-26 14:11:00,
2013-03-26 09:22:00,11.0,9.0,-100.00,SW,235,1.0,2.0,88,0.00,,,0.00,,2013-03-26 14:22:00,
2013-03-26 09:32:00,12.0,9.0,-100.00,SW,235,1.0,2.0,86,0.00,,,0.00,,2013-03-26 14:32:00,
2013-03-26 09:42:00,15.0,10.0,-100.00,West,260,1.0,2.0,84,0.00,,,0.00,,2013-03-26 14:42:00,
2013-03-26 09:53:00,16.0,10.0,-100.00,WSW,250,0.0,1.0,78,0.00,,,0.00,,2013-03-26 14:53:00,
2013-03-26 10:02:00,17.0,10.0,-100.00,West,275,0.0,2.0,74,0.00,,,0.00,,2013-03-26 15:02:00,
2013-03-26 10:12:00,19.0,10.0,-100.00,West,270,0.0,0.0,68,0.00,,,0.00,,2013-03-26 15:12:00,
2013-03-26 10:22:00,20.0,9.0,-100.00,West,265,0.0,0.0,63,0.00,,,0.00,,2013-03-26 15:22:00,
2013-03-26 10:33:00,19.0,7.0,-100.00,West,275,0.0,0.0,59,0.00,,,0.00,,2013-03-26 15:33:00,
2013-03-26 10:42:00,20.0,9.0,-100.00,NW,315,0.0,0.0,58,0.00,,,0.00,,2013-03-26 15:42:00,
2013-03-26 10:52:00,23.0,9.0,-100.00,North,350,1.0,1.0,55,0.00,,,0.00,,2013-03-26 15:52:00,
2013-03-26 11:02:00,23.0,9.0,-100.00,NNE,20,2.0,2.0,53,0.00,,,0.00,,2013-03-26 16:02:00,
2013-03-26 11:12:00,24.0,9.0,-100.00,NNW,345,1.0,2.0,52,0.00,,,0.00,,2013-03-26 16:12:00,
2013-03-26 11:22:00,21.0,7.0,-100.00,NNW,330,2.0,3.0,54,0.00,,,0.00,,2013-03-26 16:22:00,
2013-03-26 11:32:00,20.0,7.0,-100.00,NW,315,2.0,3.0,56,0.00,,,0.00,,2013-03-26 16:32:00,
2013-03-26 11:42:00,21.0,9.0,-100.00,NW,315,2.0,2.0,56,0.00,,,0.00,,2013-03-26 16:42:00,
2013-03-26 11:53:00,21.0,9.0,-100.00,NW,305,2.0,2.0,57,0.00,,,0.00,,2013-03-26 16:53:00,
2013-03-26 12:02:00,23.0,10.0,-100.00,NW,310,1.0,2.0,57,0.00,,,0.00,,2013-03-26 17:02:00,
2013-03-26 12:12:00,24.0,10.0,-100.00,NW,310,2.0,2.0,55,0.00,,,0.00,,2013-03-26 17:12:00,
2013-03-26 12:22:00,22.0,9.0,-100.00,NNW,330,2.0,3.0,57,0.00,,,0.00,,2013-03-26 17:22:00,
2013-03-26 12:32:00,22.0,10.0,-100.00,NNW,335,2.0,3.0,59,0.00,,,0.00,,2013-03-26 17:32:00,
2013-03-26 12:42:00,23.0,10.0,-100.00,NNW,335,2.0,3.0,60,0.00,,,0.00,,2013-03-26 17:42:00,
2013-03-26 12:52:00,26.0,14.0,-100.00,NNW,330,1.0,2.0,58,0.00,,,0.00,,2013-03-26 17:52:00,
2013-03-26 13:02:00,29.0,14.0,-100.00,ENE,70,1.0,1.0,54,0.00,,,0.00,,2013-03-26 18:02:00,
2013-03-26 13:12:00,31.0,14.0,-100.00,NNE,30,1.0,2.0,50,0.00,,,0.00,,2013-03-26 18:12:00,
2013-03-26 13:23:00,33.0,14.0,-100.00,NE,45,1.0,2.0,44,0.00,,,0.00,,2013-03-26 18:23:00,
2013-03-26 13:33:00,33.0,14.0,-100.00,NE,55,1.0,2.0,42,0.00,,,0.00,,2013-03-26 18:33:00,
2013-03-26 13:42:00,34.0,12.0,-100.00,NE,55,1.0,2.0,42,0.00,,,0.00,,2013-03-26 18:42:00,
2013-03-26 13:52:00,34.0,12.0,-100.00,NE,55,2.0,2.0,41,0.00,,,0.00,,2013-03-26 18:52:00,
2013-03-26 14:02:00,34.0,12.0,-100.00,ENE,60,2.0,3.0,41,0.00,,,0.00,,2013-03-26 19:02:00,
2013-03-26 14:12:00,35.0,14.0,-100.00,NE,55,1.0,2.0,40,0.00,,,0.00,,2013-03-26 19:12:00,
2013-03-26 14:22:00,35.0,12.0,-100.00,ENE,65,2.0,3.0,40,0.00,,,0.00,,2013-03-26 19:22:00,
2013-03-26 14:32:00,35.0,12.0,-100.00,NE,50,2.0,3.0,40,0.00,,,0.00,,2013-03-26 19:32:00,
2013-03-26 14:42:00,35.0,14.0,-100.00,NE,55,1.0,2.0,40,0.00,,,0.00,,2013-03-26 19:42:00,
2013-03-26 14:52:00,36.0,14.0,-100.00,ENE,65,2.0,3.0,39,0.00,,,0.00,,2013-03-26 19:52:00,
2013-03-26 15:02:00,36.0,14.0,-100.00,NE,55,1.0,3.0,39,0.00,,,0.00,,2013-03-26 20:02:00,
2013-03-26 15:12:00,36.0,14.0,-100.00,NE,40,0.0,2.0,39,0.00,,,0.00,,2013-03-26 20:12:00,
2013-03-26 15:22:00,35.0,12.0,-100.00,NE,50,3.0,4.0,39,0.00,,,0.00,,2013-03-26 20:22:00,
2013-03-26 15:32:00,35.0,12.0,-100.00,NE,55,3.0,4.0,39,0.00,,,0.00,,2013-03-26 20:32:00,
2013-03-26 15:42:00,35.0,14.0,-100.00,ENE,65,2.0,4.0,40,0.00,,,0.00,,2013-03-26 20:42:00,
2013-03-26 15:52:00,34.0,12.0,-100.00,NE,55,4.0,5.0,41,0.00,,,0.00,,2013-03-26 20:52:00,
2013-03-26 16:02:00,33.0,12.0,-100.00,NE,40,3.0,4.0,42,0.00,,,0.00,,2013-03-26 21:02:00,
2013-03-26 16:12:00,31.0,12.0,-100.00,NE,40,5.0,6.0,45,0.00,,,0.00,,2013-03-26 21:12:00,
2013-03-26 16:22:00,31.0,12.0,-100.00,NE,50,5.0,6.0,46,0.00,,,0.00,,2013-03-26 21:22:00,
2013-03-26 16:32:00,31.0,14.0,-100.00,NE,55,4.0,6.0,47,0.00,,,0.00,,2013-03-26 21:32:00,
2013-03-26 16:42:00,31.0,14.0,-100.00,NE,45,4.0,5.0,47,0.00,,,0.00,,2013-03-26 21:42:00,
2013-03-26 16:52:00,31.0,14.0,-100.00,NE,45,4.0,6.0,48,0.00,,,0.00,,2013-03-26 21:52:00,
2013-03-26 17:02:00,30.0,14.0,-100.00,NE,45,6.0,6.0,49,0.00,,,0.00,,2013-03-26 22:02:00,
2013-03-26 17:12:00,30.0,14.0,-100.00,NE,45,6.0,6.0,49,0.00,,,0.00,,2013-03-26 22:12:00,
2013-03-26 17:22:00,30.0,14.0,-100.00,NE,45,4.0,5.0,51,0.00,,,0.00,,2013-03-26 22:22:00,
2013-03-26 17:33:00,29.0,14.0,-100.00,NE,45,5.0,6.0,51,0.00,,,0.00,,2013-03-26 22:33:00,
2013-03-26 17:42:00,29.0,14.0,-100.00,NE,40,6.0,6.0,53,0.00,,,0.00,,2013-03-26 22:42:00,
2013-03-26 17:52:00,28.0,14.0,-100.00,NE,40,6.0,6.0,54,0.00,,,0.00,,2013-03-26 22:52:00,
2013-03-26 18:01:00,28.0,14.0,-100.00,NE,45,4.0,6.0,55,0.00,,,0.00,,2013-03-26 23:01:00,
2013-03-26 18:10:00,28.0,14.0,-100.00,NE,45,6.0,6.0,55,0.00,,,0.00,,2013-03-26 23:10:00,
2013-03-26 18:22:00,27.0,14.0,-100.00,NE,45,5.0,6.0,56,0.00,,,0.00,,2013-03-26 23:22:00,
2013-03-26 18:32:00,27.0,14.0,-100.00,NE,45,6.0,6.0,57,0.00,,,0.00,,2013-03-26 23:32:00,
2013-03-26 18:42:00,27.0,14.0,-100.00,NE,45,4.0,4.0,57,0.00,,,0.00,,2013-03-26 23:42:00,
2013-03-26 18:52:00,26.0,14.0,-100.00,NE,55,4.0,5.0,57,0.00,,,0.00,,2013-03-26 23:52:00,
2013-03-26 19:02:00,26.0,12.0,-100.00,ENE,60,4.0,5.0,57,0.00,,,0.00,,2013-03-27 00:02:00,
2013-03-26 19:12:00,24.0,12.0,-100.00,NE,55,5.0,5.0,59,0.00,,,0.00,,2013-03-27 00:12:00,
2013-03-26 19:22:00,24.0,12.0,-100.00,NE,55,5.0,5.0,60,0.00,,,0.00,,2013-03-27 00:22:00,
2013-03-26 19:32:00,24.0,12.0,-100.00,NE,55,5.0,5.0,60,0.00,,,0.00,,2013-03-27 00:32:00,
2013-03-26 19:33:00,17.0,9.0,-100.00,ENE,60,6.0,6.0,68,0.00,,,0.00,,2013-03-27 00:33:00,
2013-03-26 19:42:00,24.0,12.0,-100.00,NE,55,5.0,5.0,60,0.00,,,0.00,,2013-03-27 00:42:00,
2013-03-26 19:52:00,17.0,9.0,-100.00,ENE,60,6.0,6.0,68,0.00,,,0.00,,2013-03-27 00:52:00,
2013-03-26 20:02:00,17.0,9.0,-100.00,ENE,60,6.0,6.0,68,0.00,,,0.00,,2013-03-27 01:02:00,
2013-03-26 20:12:00,17.0,9.0,-100.00,ENE,60,6.0,6.0,68,0.00,,,0.00,,2013-03-27 01:12:00,
2013-03-26 20:22:00,17.0,9.0,-100.00,ENE,60,6.0,6.0,68,0.00,,,0.00,,2013-03-27 01:22:00,
2013-03-26 20:43:00,14.0,9.0,-100.00,SSE,150,2.0,2.0,79,0.00,,,0.00,,2013-03-27 01:43:00,
2013-03-26 20:53:00,15.0,10.0,-100.00,SE,145,2.0,2.0,81,0.00,,,0.00,,2013-03-27 01:53:00,
2013-03-26 21:03:00,16.0,10.0,-100.00,SE,140,1.0,2.0,82,0.00,,,0.00,,2013-03-27 02:03:00,
2013-03-26 21:12:00,16.0,10.0,-100.00,SE,140,1.0,2.0,82,0.00,,,0.00,,2013-03-27 02:12:00,
2013-03-26 21:22:00,16.0,10.0,-100.00,SE,140,1.0,2.0,82,0.00,,,0.00,,2013-03-27 02:22:00,
2013-03-26 21:32:00,16.0,10.0,-100.00,SE,140,1.0,2.0,82,0.00,,,0.00,,2013-03-27 02:32:00,
2013-03-26 21:53:00,13.0,10.0,-100.00,SSW,195,3.0,4.0,89,0.00,,,0.00,,2013-03-27 02:53:00,
2013-03-26 22:02:00,13.0,10.0,-100.00,South,190,2.0,3.0,90,0.00,,,0.00,,2013-03-27 03:02:00,
2013-03-26 22:12:00,13.0,10.0,-100.00,South,180,2.0,3.0,90,0.00,,,0.00,,2013-03-27 03:12:00,
2013-03-26 22:22:00,14.0,12.0,-100.00,South,175,1.0,2.0,91,0.00,,,0.00,,2013-03-27 03:22:00,
2013-03-26 22:33:00,14.0,12.0,-100.00,South,175,1.0,2.0,91,0.00,,,0.00,,2013-03-27 03:33:00,
2013-03-26 22:42:00,14.0,12.0,-100.00,South,175,1.0,2.0,91,0.00,,,0.00,,2013-03-27 03:42:00,
2013-03-26 22:52:00,14.0,12.0,-100.00,South,175,1.0,2.0,91,0.00,,,0.00,,2013-03-27 03:52:00,
2013-03-26 23:02:00,14.0,12.0,-100.00,South,175,1.0,2.0,91,0.00,,,0.00,,2013-03-27 04:02:00,
2013-03-26 23:23:00,11.0,10.0,-100.00,SW,215,2.0,2.0,92,0.00,,,0.00,,2013-03-27 04:23:00,
2013-03-26 23:33:00,12.0,10.0,-100.00,SW,215,2.0,2.0,93,0.00,,,0.00,,2013-03-27 04:33:00,
2013-03-26 23:43:00,10.0,9.0,-100.00,SSW,210,2.0,3.0,93,0.00,,,0.00,,2013-03-27 04:43:00,
2013-03-26 23:52:00,9.0,7.0,-100.00,SSW,210,4.0,4.0,93,0.00,,,0.00,,2013-03-27 04:52:00,